Preview of NWS' New Version of Forecast
This preview is not operational and should not be used for support decisions.

Regional Weather Roundup (RWR)

Issued by National Weather Service (NWS)

                            
000
ASUS43 KMKX 182220
RWRWI 

WISCONSIN REGIONAL WEATHER ROUNDUP
NATIONAL WEATHER SERVICE MILWAUKEE/SULLIVAN WI
500 PM CDT THU APR 18 2019

NOTE: "FAIR" INDICATES FEW OR NO CLOUDS BELOW 12,000 FEET WITH NO
SIGNIFICANT WEATHER AND/OR OBSTRUCTIONS TO VISIBILITY.

WIZ001-002-006>008-014>016-023>028-182300-
NORTHWEST WISCONSIN
  
CITY           SKY/WX    TMP DP  RH WIND       PRES   REMARKS
SUPERIOR ARPT  PTSUNNY   52  38  59 N9        29.89R                  
ASHLAND        CLOUDY    47  39  74 N7        29.86R                  
HAYWARD        PTSUNNY   46  40  79 N8        29.87R                  
SIREN          CLOUDY    49  38  64 N7G16     29.88S                  
CUMBERLAND     LGT RAIN  45  37  76 N12       29.87R                  
RICE LAKE      FAIR      48  41  76 N13G18    29.87S                  
CHETEK         FAIR      47  38  72 N8G16     29.86R                  
LADYSMITH      PTSUNNY   44  40  85 N14       29.86R                  
EAU CLAIRE     CLOUDY    49  37  63 N14G22    29.84R                  
MENOMONIE      PTSUNNY   47  35  63 N17       29.86R                  
NEW RICHMOND   PTSUNNY   50  38  62 NW12      29.88R                  
OSCEOLA        CLOUDY    50  40  68 N12G17    29.91S                  
$$
 
WIZ003>005-009-010-017-018-182300-
NORTH CENTRAL WISCONSIN
  
CITY           SKY/WX    TMP DP  RH WIND       PRES   REMARKS
MANITOWISH WTR DRIZZLE   38  38 100 N8        29.81R WCI  32          
ARBOR VITAE    CLOUDY    42  39  89 N8        29.80R                  
WOODRUFF       CLOUDY    42  39  89 N8        29.80R                  
RHINELANDER    CLOUDY    40  34  79 VRB6      29.79R                  
EAGLE RIVER    CLOUDY    38  37  94 N10       29.78R WCI  31          
LAND O LAKES   CLOUDY    39  36  89 N10       29.80R WCI  32          
PHILLIPS       CLOUDY    40  38  95 NW7       29.82R WCI  35          
TOMAHAWK       DRIZZLE   37  35  91 N8        29.81R WCI  31          
MEDFORD        DRIZZLE   38  36  93 N15       29.81R WCI  29          
MERRILL        DRIZZLE   39  37  91 N12       29.80R WCI  32          
$$
 
WIZ029-030-035-036-043>047-182300-
CENTRAL WISCONSIN
  
CITY           SKY/WX    TMP DP  RH WIND       PRES   REMARKS
WAUSAU         CLOUDY    40  35  83 N14G25    29.76R WCI  32          
MOSINEE        CLOUDY    39  36  87 NW16G22   29.78R WCI  30          
MARSHFIELD     CLOUDY    41  37  86 N15G26    29.79R                  
STEVENS POINT  CLOUDY    40  34  77 NW12G22   29.78R WCI  34          
WAUPACA        CLOUDY    46  37  68 NW12G17   29.75R                  
WAUTOMA        CLOUDY    44  36  73 NW12      29.75R                  
WISC RAPIDS    CLOUDY    44  33  65 N13G23    29.78R                  
CAMP DOUGLAS   CLOUDY    44  39  82 N16G26    29.79R                  
$$
 
WIZ011>013-019>022-031-037>040-048>050-182300-
NORTHEAST WISCONSIN
  
CITY           SKY/WX    TMP DP  RH WIND       PRES   REMARKS
ANTIGO         CLOUDY    40  35  83 N15G21    29.75R WCI  31          
SHAWANO        CLOUDY    46  37  71 N15G22    29.74R                  
OCONTO         CLOUDY    41  37  84 N10G18    29.72R                  
STURGEON BAY   NOT AVBL                                               
GREEN BAY      CLOUDY    46  37  71 N12       29.70R                  
MANITOWOC      CLOUDY    43  37  81 N15       29.71R                  
APPLETON       CLOUDY    45  34  65 NW13      29.70R                  
CLINTONVILLE   CLOUDY    45  35  70 N5        29.74R                  
OSHKOSH        CLOUDY    45  36  70 NW15G22   29.71R                  
$$
 
WIZ032>034-041-042-053>061-182300-
SOUTHWEST WISCONSIN
  
CITY           SKY/WX    TMP DP  RH WIND       PRES   REMARKS
LA CROSSE      CLOUDY    49  35  58 N17G23    29.83R                  
SPARTA         CLOUDY    45  37  72 N12G17    29.82S                  
VIROQUA        CLOUDY    45  38  79 N16G22    29.79S                  
BOSCOBEL       CLOUDY    49  36  61 N13G28    29.79R                  
PRAIRIE DU CHI CLOUDY    49  34  57 NW17G26   29.81R                  
PLATTEVILLE    CLOUDY    47  39  74 N16G22    29.76S                  
$$

WIZ056-057-062-063-064-067-068-182300-
SOUTH CENTRAL WISCONSIN
  
CITY           SKY/WX    TMP DP  RH WIND       PRES   REMARKS
REEDSBURG      CLOUDY    44  35  72 NW15G25   29.76F                  
BARABOO/DELLS  CLOUDY    44  35  71 N12G21    29.76R                  
LONE ROCK      CLOUDY    46  35  65 N15G24    29.77S                  
MINERAL POINT  CLOUDY    46  39  76 NW15      29.76R                  
MADISON        CLOUDY    44  36  73 N12G22    29.74R                  
MIDDLETON      CLOUDY    46  38  73 N14G20    29.74S                  
WATERTOWN      CLOUDY    43  40  91 NW13G18   29.73R                  
MONROE         CLOUDY    44  35  69 MISG      29.76R                  
JANESVILLE     CLOUDY    46  37  71 NW17G23   29.73R                  
$$
 
WIZ051-052-058>065-066-070>072-182300-
SOUTHEAST WISCONSIN
  
CITY           SKY/WX    TMP DP  RH WIND       PRES   REMARKS
MILWAUKEE      CLOUDY    46  36  68 NW13      29.70R                  
WAUKESHA       CLOUDY    43  36  75 NW14      29.72R                  
MILWAUKEE/TIMM CLOUDY    43  36  75 NW15      29.71R                  
RACINE         CLOUDY    44  40  85 N5        29.71R                  
KENOSHA        CLOUDY    46  41  82 NW13G20   29.69R                  
FOND DU LAC    CLOUDY    44  37  76 N13       29.72R                  
SHEBOYGAN      CLOUDY    44  38  79 NW8       29.70R                  
WEST BEND      CLOUDY    41  37  87 NW13      29.71R                  
JUNEAU         CLOUDY    41  39  92 NW10G16   29.74R                  
$$

LSZ147-162-182300-
LAKE SUPERIOR
  
STATION/POSITION TIME  TEMP    WIND        PRES    WAVE
                       AIR SEA DIR/SP/G            HT/PER
                 (UTC) (F)     (DEG/KT/KT) (MB)    (FT/S)
$$
 
LMZ867-665-643>646-182300-
LAKE MICHIGAN
  
STATION/POSITION TIME  TEMP    WIND        PRES    WAVE
                       AIR SEA DIR/SP/G            HT/PER
                 (UTC) (F)     (DEG/KT/KT) (MB)    (FT/S)
NORTHPORT PIER   2140   37     320/  8/ 10 1004.7R
KEWAUNEE LAKESHO 2154   43     340/ 11/ 15 1004.7R
SHEBOYGAN LAKESH 2200   44     320/ 13/ 16 1005.9R
MILWAUKEE LAKESH 2200   44                   N/A
KENOSHA   LAKESH 2200   46     320/ 12/ 16 1006.1
$$

TC  - TEMPERATURE IN CELSIUS
VSB - VISIBILITY IN STATUTE MILES
WCI - WIND CHILL INDEX
HX  - HEAT INDEX